Regional Weather Roundup
Issued by NWS Newport/Morehead, NC

Current Version | Previous Version | Text Only | Print | Product List | Glossary On
Versions: 1 2 3 4 5 6 7 8 9 10 11 12 13 14 15 16 17 18 19 20 21 22 23 24 25 26 27 28 29 30 31 32 33 34 35 36 37 38 39 40 41 42 43 44 45 46 47 48 49 50
000 ASUS42 KMHX 250522 RWRMHX WEATHER ROUNDUP FOR EASTERN NORTH CAROLINA NATIONAL WEATHER SERVICE NEWPORT/MOREHEAD CITY NC 100 AM EDT FRI JUL 25 2014 NOTE: "FAIR" INDICATES FEW OR NO CLOUDS BELOW 12,000 FEET WITH NO SIGNIFICANT WEATHER AND/OR OBSTRUCTIONS TO VISIBILITY NCZ015>017-031-032-045>047-102-103-250600- NORTH COAST CITY SKY/WX TMP DP RH WIND PRES REMARKS EDENTON CLOUDY 69 67 94 N6 29.94R ELIZABETH CITY CLOUDY 69 66 90 NW5 29.91R KITTY HAWK CLOUDY 73 69 86 SE8G16 29.85F MANTEO NOT AVBL $$ NCZ045>047-081-094-103-104-250600- CENTRAL COAST CITY SKY/WX TMP DP RH WIND PRES REMARKS FRISCO LGT RAIN 74 74 100 VRB6 29.92S FOG SWANQUARTER N/A 70 N/A N/A SE3 29.88R $$ NCZ095-097-098-100-101-250600- SOUTHERN COAST CITY SKY/WX TMP DP RH WIND PRES REMARKS BEAUFORT HVY RAIN 71 69 93 N9 29.95F FOG CEDAR ISLAND N/A 72 N/A N/A SW2 29.97S JACKSONVILLE CLOUDY 71 70 96 E10 29.94F NEWPORT NOT AVBL PINEY ISLAND RAIN 72 N/A N/A SW9 29.94R WILMINGTON CLOUDY 74 71 91 N7 29.95R $$ NCZ011>013-027>030-043-044-078>080-089-090>093-098-250600- COASTAL PLAIN CITY SKY/WX TMP DP RH WIND PRES REMARKS AHOSKIE CLOUDY 69 68 96 CALM 29.96R CLINTON CLOUDY 70 70 100 N5 29.97R ELIZABETHTOWN CLOUDY 72 72 99 CALM 29.96R GOLDSBORO CLOUDY 69 68 99 N2 29.95R GREENVILLE CLOUDY 68 68 100 CALM 29.98R HAVELOCK CLOUDY 69 66 90 MISG 29.96F FOG KENANSVILLE CLOUDY 68 67 94 CALM 29.96S KINSTON CLOUDY 69 68 98 NW3 29.97R NEW BERN RAIN 71 68 90 S7 29.95F FOG RICHLANDS CLOUDY 70 66 88 S6 29.96S ROANOKE RAPIDS NOT AVBL ROCKY MOUNT PTCLDY 68 66 93 NW3 29.97S WASHINGTON CLOUDY 68 67 97 CALM 29.95S WHITEVILLE CLOUDY 74 72 94 CALM 29.94S $$ AMZ130-135-150-152-154-156-158-170-250-252-270-ANZ085-086-088-633-658-670-250600- MARINE OBSERVATIONS STATION/POSITION TIME TEMP WIND PRES WAVE SWELL AIR SEA DIR/SP/G HT/PER HT/PER (UTC) (F) (DEG/KT/KT) (MB) (FT/S) (FT/S) CHESAPEAKE LIGHT NOT AVBL BUOY 44014 0500 74 78 170/ 8/ 10 1011.0 3/ 6 3/ 6 DUCK 0500 75 76 110/ 16/ 20 1010.3 2E DUCK 0500 N/A 2/ 3 OREGON INLET 0500 73 78 30/ 11/ 15 1012.2 BUOY 44095 0500 77 N/A 3/ 7 20E OREGON INLET NOT AVBL HATTERAS CG 0500 76 80 350/ 11/ 13 1013.7 DIAMOND BUOY 0500 VRB 16/ 17 1012.7 4/ 7 2/13 CAPE LOOKOUT 0500 72 350/ 15/ 19 1014.0 BEAUFORT LAB 0500 71 81 350/ 9/ 15 1014.1 30 SE NEW RIVER 0500 78 81 260/ 14/ 16 1014.4 4/ 6 2/ 7 5 SE WRIGHTSVILL 0500 73 82 290/ 8/ 10 N/A BUOY 41002 0425 82 82 230/ 19/ 23 1016.4 5/ 7 2/ 9 BUOY 41004 0500 83 83 220/ 17/ 19 1013.6 4/ 5 2/17 $$

USA.gov is the U.S. government's official web portal to all federal, state and local government web resources and services.